Time,TemperatureF,DewpointF,PressureIn,WindDirection,WindDirectionDegrees,WindSpeedMPH,WindSpeedGustMPH,Humidity,HourlyPrecipIn,Conditions,Clouds,dailyrainin,SoftwareType,DateUTC
2013-10-31 00:00:00,44.1,41.0,28.41,WNW,292,10.5,17.2,89,0.00,,,0.00,VWS V14.01,2013-10-31 05:00:00,
2013-10-31 00:05:00,46.9,44.2,28.41,WNW,292,9.8,11.0,90,0.00,,,0.08,VWS V14.01,2013-10-31 05:05:00,
2013-10-31 00:10:00,44.1,41.0,28.41,WNW,292,9.8,13.6,89,0.00,,,0.00,VWS V14.01,2013-10-31 05:10:00,
2013-10-31 00:15:00,43.7,40.7,28.41,NW,315,11.2,14.8,89,0.00,,,0.00,VWS V14.01,2013-10-31 05:15:00,
2013-10-31 00:20:00,46.0,43.3,28.41,WNW,292,14.8,15.2,90,0.00,,,0.08,VWS V14.01,2013-10-31 05:20:00,
2013-10-31 00:25:00,43.5,39.9,28.41,WNW,292,14.1,17.0,87,0.00,,,0.00,VWS V14.01,2013-10-31 05:25:00,
2013-10-31 00:30:00,45.5,42.7,28.41,WNW,292,11.0,14.8,90,0.00,,,0.08,VWS V14.01,2013-10-31 05:30:00,
2013-10-31 00:35:00,43.2,39.3,28.41,WNW,292,10.1,16.8,86,0.00,,,0.00,VWS V14.01,2013-10-31 05:35:00,
2013-10-31 00:40:00,43.0,38.8,28.41,WNW,292,13.0,14.8,85,0.00,,,0.00,VWS V14.01,2013-10-31 05:40:00,
2013-10-31 00:45:00,43.0,38.8,28.41,NW,315,10.3,15.4,85,0.00,,,0.00,VWS V14.01,2013-10-31 05:45:00,
2013-10-31 00:50:00,42.8,38.6,28.41,WNW,292,13.0,16.3,85,0.00,,,0.00,VWS V14.01,2013-10-31 05:50:00,
2013-10-31 00:55:00,42.6,38.4,28.41,WNW,292,8.5,13.2,85,0.00,,,0.00,VWS V14.01,2013-10-31 05:55:00,
2013-10-31 01:00:00,42.4,38.6,28.41,WNW,292,10.3,11.0,86,0.00,,,0.00,VWS V14.01,2013-10-31 06:00:00,
2013-10-31 01:05:00,44.1,41.0,28.41,NW,315,9.6,15.2,89,0.00,,,0.00,VWS V14.01,2013-10-31 06:05:00,
2013-10-31 01:10:00,42.4,38.6,28.41,WNW,292,12.3,16.6,86,0.00,,,0.00,VWS V14.01,2013-10-31 06:10:00,
2013-10-31 01:15:00,43.7,40.7,28.41,NW,315,11.2,14.8,89,0.00,,,0.00,VWS V14.01,2013-10-31 06:15:00,
2013-10-31 01:20:00,42.3,38.4,28.41,WNW,292,11.2,11.2,86,0.00,,,0.00,VWS V14.01,2013-10-31 06:20:00,
2013-10-31 01:25:00,42.1,38.2,28.41,WNW,292,7.8,13.0,86,0.00,,,0.00,VWS V14.01,2013-10-31 06:25:00,
2013-10-31 01:30:00,42.1,38.2,28.41,WNW,292,8.7,13.0,86,0.00,,,0.00,VWS V14.01,2013-10-31 06:30:00,
2013-10-31 01:35:00,42.1,38.2,28.41,WNW,292,8.1,11.9,86,0.00,,,0.00,VWS V14.01,2013-10-31 06:35:00,
2013-10-31 01:40:00,43.0,38.8,28.41,WNW,292,13.0,14.8,85,0.00,,,0.00,VWS V14.01,2013-10-31 06:40:00,
2013-10-31 01:45:00,41.9,37.7,28.41,WNW,292,6.0,12.8,85,0.00,,,0.00,VWS V14.01,2013-10-31 06:45:00,
2013-10-31 01:50:00,42.8,38.6,28.41,WNW,292,13.0,16.3,85,0.00,,,0.00,VWS V14.01,2013-10-31 06:50:00,
2013-10-31 01:55:00,41.7,37.2,28.41,NW,315,9.8,12.5,84,0.00,,,0.00,VWS V14.01,2013-10-31 06:55:00,
2013-10-31 02:00:00,41.7,37.2,28.41,NW,315,7.4,10.7,84,0.00,,,0.00,VWS V14.01,2013-10-31 07:00:00,
2013-10-31 02:05:00,41.5,37.1,28.38,WNW,292,13.0,13.0,84,0.00,,,0.00,VWS V14.01,2013-10-31 07:05:00,
2013-10-31 02:10:00,41.5,36.8,28.38,WNW,292,7.6,14.8,83,0.00,,,0.00,VWS V14.01,2013-10-31 07:10:00,
2013-10-31 02:15:00,42.3,38.4,28.41,WNW,292,10.7,14.5,86,0.00,,,0.00,VWS V14.01,2013-10-31 07:15:00,
2013-10-31 02:20:00,41.5,37.1,28.38,NW,315,7.8,9.8,84,0.00,,,0.00,VWS V14.01,2013-10-31 07:20:00,
2013-10-31 02:25:00,42.1,38.2,28.41,WNW,292,7.8,13.0,86,0.00,,,0.00,VWS V14.01,2013-10-31 07:25:00,
2013-10-31 02:30:00,41.5,36.8,28.38,WNW,292,10.1,12.1,83,0.00,,,0.00,VWS V14.01,2013-10-31 07:30:00,
2013-10-31 02:35:00,41.5,37.1,28.38,WNW,292,10.3,11.0,84,0.00,,,0.00,VWS V14.01,2013-10-31 07:35:00,
2013-10-31 02:40:00,41.5,37.1,28.38,WNW,292,8.1,10.7,84,0.00,,,0.00,VWS V14.01,2013-10-31 07:40:00,
2013-10-31 02:45:00,41.2,36.4,28.38,WNW,292,5.6,10.1,83,0.00,,,0.00,VWS V14.01,2013-10-31 07:45:00,
2013-10-31 02:50:00,41.7,37.5,28.41,NW,315,7.8,12.8,85,0.00,,,0.00,VWS V14.01,2013-10-31 07:50:00,
2013-10-31 02:55:00,41.0,35.3,28.38,WNW,292,8.7,13.0,80,0.00,,,0.00,VWS V14.01,2013-10-31 07:55:00,
2013-10-31 03:00:00,41.7,37.2,28.41,NW,315,7.4,10.7,84,0.00,,,0.00,VWS V14.01,2013-10-31 08:00:00,
2013-10-31 03:05:00,40.8,35.1,28.38,NW,315,7.8,13.0,80,0.00,,,0.00,VWS V14.01,2013-10-31 08:05:00,
2013-10-31 03:10:00,40.6,34.0,28.38,WNW,292,10.7,15.4,77,0.00,,,0.00,VWS V14.01,2013-10-31 08:10:00,
2013-10-31 03:15:00,40.5,33.8,28.38,NW,315,7.6,11.0,77,0.00,,,0.00,VWS V14.01,2013-10-31 08:15:00,
2013-10-31 03:20:00,40.5,34.2,28.35,WNW,292,6.5,15.7,78,0.00,,,0.00,VWS V14.01,2013-10-31 08:20:00,
2013-10-31 03:25:00,41.5,37.1,28.38,NW,315,9.0,10.7,84,0.00,,,0.00,VWS V14.01,2013-10-31 08:25:00,
2013-10-31 03:30:00,40.5,35.1,28.35,WNW,292,6.0,13.0,81,0.00,,,0.00,VWS V14.01,2013-10-31 08:30:00,
2013-10-31 03:35:00,41.5,37.1,28.38,WNW,292,10.3,11.0,84,0.00,,,0.00,VWS V14.01,2013-10-31 08:35:00,
2013-10-31 03:40:00,40.3,35.5,28.38,WNW,292,8.1,12.5,83,0.00,,,0.00,VWS V14.01,2013-10-31 08:40:00,
2013-10-31 03:45:00,40.1,35.4,28.38,WNW,292,9.8,11.0,83,0.00,,,0.00,VWS V14.01,2013-10-31 08:45:00,
2013-10-31 03:50:00,40.1,35.4,28.38,WNW,292,8.7,9.8,83,0.00,,,0.00,VWS V14.01,2013-10-31 08:50:00,
2013-10-31 03:55:00,40.1,35.4,28.38,WNW,292,7.6,10.7,83,0.00,,,0.00,VWS V14.01,2013-10-31 08:55:00,
2013-10-31 04:00:00,41.0,35.6,28.38,WNW,292,9.0,10.7,81,0.00,,,0.00,VWS V14.01,2013-10-31 09:00:00,
2013-10-31 04:05:00,40.3,35.2,28.38,WNW,292,10.3,11.0,82,0.00,,,0.00,VWS V14.01,2013-10-31 09:05:00,
2013-10-31 04:10:00,40.6,34.0,28.38,WNW,292,10.7,15.4,77,0.00,,,0.00,VWS V14.01,2013-10-31 09:10:00,
2013-10-31 04:15:00,39.7,32.8,28.38,NNW,338,7.6,13.0,76,0.00,,,0.00,VWS V14.01,2013-10-31 09:15:00,
2013-10-31 04:20:00,39.7,32.5,28.35,WNW,292,7.6,13.6,75,0.00,,,0.00,VWS V14.01,2013-10-31 09:20:00,
2013-10-31 04:25:00,39.4,32.1,28.35,WNW,292,4.0,9.8,75,0.00,,,0.00,VWS V14.01,2013-10-31 09:25:00,
2013-10-31 04:30:00,40.5,35.1,28.35,WNW,292,6.0,13.0,81,0.00,,,0.00,VWS V14.01,2013-10-31 09:30:00,
2013-10-31 04:35:00,39.0,32.1,28.35,NNW,338,3.6,5.6,76,0.00,,,0.00,VWS V14.01,2013-10-31 09:35:00,
2013-10-31 04:40:00,38.7,31.8,28.35,NNW,338,4.3,6.0,76,0.00,,,0.00,VWS V14.01,2013-10-31 09:40:00,
2013-10-31 04:45:00,40.1,35.4,28.38,WNW,292,9.8,11.0,83,0.00,,,0.00,VWS V14.01,2013-10-31 09:45:00,
2013-10-31 04:50:00,38.3,31.7,28.35,NNW,338,3.6,6.0,77,0.00,,,0.00,VWS V14.01,2013-10-31 09:50:00,
2013-10-31 04:55:00,38.1,31.9,28.35,NNW,338,3.1,5.8,78,0.00,,,0.00,VWS V14.01,2013-10-31 09:55:00,
2013-10-31 05:00:00,37.9,31.7,28.35,NNW,338,2.0,4.7,78,0.00,,,0.00,VWS V14.01,2013-10-31 10:00:00,
2013-10-31 05:05:00,37.9,31.7,28.35,NNW,338,1.3,2.7,78,0.00,,,0.00,VWS V14.01,2013-10-31 10:05:00,
2013-10-31 05:10:00,37.6,31.4,28.35,NNW,338,1.1,2.0,78,0.00,,,0.00,VWS V14.01,2013-10-31 10:10:00,
2013-10-31 05:15:00,37.4,31.2,28.35,NNW,338,1.6,2.7,78,0.00,,,0.00,VWS V14.01,2013-10-31 10:15:00,
2013-10-31 05:20:00,39.7,32.5,28.35,WNW,292,7.6,13.6,75,0.00,,,0.00,VWS V14.01,2013-10-31 10:20:00,
2013-10-31 05:25:00,37.4,31.5,28.35,NW,315,3.1,4.3,79,0.00,,,0.00,VWS V14.01,2013-10-31 10:25:00,
2013-10-31 05:30:00,37.4,31.5,28.35,NW,315,2.7,4.7,79,0.00,,,0.00,VWS V14.01,2013-10-31 10:30:00,
2013-10-31 05:35:00,37.2,31.6,28.35,NW,315,2.9,4.0,80,0.00,,,0.00,VWS V14.01,2013-10-31 10:35:00,
2013-10-31 05:40:00,38.7,31.8,28.35,NNW,338,4.3,6.0,76,0.00,,,0.00,VWS V14.01,2013-10-31 10:40:00,
2013-10-31 05:45:00,37.2,32.2,28.35,NNW,338,3.4,4.9,82,0.00,,,0.00,VWS V14.01,2013-10-31 10:45:00,
2013-10-31 05:50:00,37.2,32.2,28.35,NNW,338,3.4,5.4,82,0.00,,,0.00,VWS V14.01,2013-10-31 10:50:00,
2013-10-31 05:55:00,38.1,31.9,28.35,NNW,338,3.1,5.8,78,0.00,,,0.00,VWS V14.01,2013-10-31 10:55:00,
2013-10-31 06:00:00,37.4,32.7,28.35,WNW,292,5.8,6.5,83,0.00,,,0.00,VWS V14.01,2013-10-31 11:00:00,
2013-10-31 06:05:00,37.4,33.0,28.35,WNW,292,2.5,5.8,84,0.00,,,0.00,VWS V14.01,2013-10-31 11:05:00,
2013-10-31 06:10:00,37.4,33.0,28.35,WNW,292,5.4,5.4,84,0.00,,,0.00,VWS V14.01,2013-10-31 11:10:00,
2013-10-31 06:15:00,37.4,33.0,28.35,WNW,292,5.6,7.4,84,0.00,,,0.00,VWS V14.01,2013-10-31 11:15:00,
2013-10-31 06:20:00,37.4,33.0,28.35,West,270,6.3,6.5,84,0.00,,,0.00,VWS V14.01,2013-10-31 11:20:00,
2013-10-31 06:25:00,37.4,33.0,28.35,WNW,292,7.6,7.8,84,0.00,,,0.00,VWS V14.01,2013-10-31 11:25:00,
2013-10-31 06:30:00,37.4,33.0,28.35,WNW,292,6.0,8.7,84,0.00,,,0.00,VWS V14.01,2013-10-31 11:30:00,
2013-10-31 06:35:00,37.4,33.0,28.35,WNW,292,3.8,8.1,84,0.00,,,0.00,VWS V14.01,2013-10-31 11:35:00,
2013-10-31 06:40:00,37.4,32.7,28.35,WNW,292,5.4,8.1,83,0.00,,,0.00,VWS V14.01,2013-10-31 11:40:00,
2013-10-31 06:45:00,37.4,32.7,28.35,NW,315,5.8,6.5,83,0.00,,,0.00,VWS V14.01,2013-10-31 11:45:00,
2013-10-31 06:50:00,37.4,32.7,28.35,WNW,292,7.4,7.6,83,0.00,,,0.00,VWS V14.01,2013-10-31 11:50:00,
2013-10-31 06:55:00,37.4,32.7,28.35,WNW,292,8.1,8.5,83,0.00,,,0.00,VWS V14.01,2013-10-31 11:55:00,
2013-10-31 07:00:00,37.2,32.5,28.35,WNW,292,6.3,8.7,83,0.00,,,0.00,VWS V14.01,2013-10-31 12:00:00,
2013-10-31 07:05:00,37.0,32.4,28.35,WNW,292,5.6,8.7,83,0.00,,,0.00,VWS V14.01,2013-10-31 12:05:00,
2013-10-31 07:10:00,37.0,32.4,28.35,WNW,292,4.3,8.7,83,0.00,,,0.00,VWS V14.01,2013-10-31 12:10:00,
2013-10-31 07:15:00,37.0,32.4,28.35,WNW,292,5.6,7.8,83,0.00,,,0.00,VWS V14.01,2013-10-31 12:15:00,
2013-10-31 07:20:00,37.0,32.4,28.32,WNW,292,2.5,6.5,83,0.00,,,0.00,VWS V14.01,2013-10-31 12:20:00,
2013-10-31 07:25:00,37.0,32.7,28.32,NW,315,3.6,5.6,84,0.00,,,0.00,VWS V14.01,2013-10-31 12:25:00,
2013-10-31 07:30:00,37.0,32.7,28.32,WNW,292,4.3,5.8,84,0.00,,,0.00,VWS V14.01,2013-10-31 12:30:00,
2013-10-31 07:35:00,37.0,33.0,28.32,WNW,292,3.1,4.9,85,0.00,,,0.00,VWS V14.01,2013-10-31 12:35:00,
2013-10-31 07:40:00,37.0,33.0,28.32,WNW,292,5.8,6.0,85,0.00,,,0.00,VWS V14.01,2013-10-31 12:40:00,
2013-10-31 07:45:00,37.0,33.0,28.32,WNW,292,8.7,8.7,85,0.00,,,0.00,VWS V14.01,2013-10-31 12:45:00,
2013-10-31 07:50:00,37.2,33.1,28.32,NW,315,3.1,8.7,85,0.00,,,0.00,VWS V14.01,2013-10-31 12:50:00,
2013-10-31 07:55:00,37.2,33.1,28.32,WNW,292,3.8,6.5,85,0.00,,,0.00,VWS V14.01,2013-10-31 12:55:00,
2013-10-31 08:00:00,37.2,33.1,28.32,NNW,338,3.4,6.5,85,0.00,,,0.00,VWS V14.01,2013-10-31 13:00:00,
2013-10-31 08:05:00,37.2,33.1,28.32,WNW,292,3.1,6.9,85,0.00,,,0.00,VWS V14.01,2013-10-31 13:05:00,
2013-10-31 08:10:00,37.2,32.8,28.32,NW,315,3.6,7.2,84,0.00,,,0.00,VWS V14.01,2013-10-31 13:10:00,
2013-10-31 08:15:00,37.2,32.8,28.32,NW,315,4.0,7.6,84,0.00,,,0.00,VWS V14.01,2013-10-31 13:15:00,
2013-10-31 08:20:00,37.2,32.8,28.32,NW,315,9.8,12.8,84,0.00,,,0.00,VWS V14.01,2013-10-31 13:20:00,
2013-10-31 08:25:00,37.4,32.7,28.32,NW,315,5.4,10.7,83,0.00,,,0.00,VWS V14.01,2013-10-31 13:25:00,
2013-10-31 08:30:00,37.4,32.4,28.32,WNW,292,8.7,10.7,82,0.00,,,0.00,VWS V14.01,2013-10-31 13:30:00,
2013-10-31 08:35:00,37.4,32.4,28.32,WNW,292,9.8,9.8,82,0.00,,,0.00,VWS V14.01,2013-10-31 13:35:00,
2013-10-31 08:40:00,37.4,32.1,28.32,WNW,292,10.1,11.0,81,0.00,,,0.00,VWS V14.01,2013-10-31 13:40:00,
2013-10-31 08:45:00,37.4,31.8,28.32,NW,315,11.0,12.1,80,0.00,,,0.00,VWS V14.01,2013-10-31 13:45:00,
2013-10-31 08:50:00,37.4,31.5,28.32,WNW,292,7.4,12.1,79,0.00,,,0.00,VWS V14.01,2013-10-31 13:50:00,
2013-10-31 08:55:00,37.6,31.7,28.32,WNW,292,8.5,9.8,79,0.00,,,0.00,VWS V14.01,2013-10-31 13:55:00,
2013-10-31 09:00:00,37.6,31.7,28.32,WNW,292,7.6,11.0,79,0.00,,,0.00,VWS V14.01,2013-10-31 14:00:00,
2013-10-31 09:05:00,37.6,31.7,28.32,WNW,292,10.1,11.2,79,0.00,,,0.00,VWS V14.01,2013-10-31 14:05:00,
2013-10-31 09:10:00,37.6,31.7,28.32,WNW,292,6.7,10.1,79,0.00,,,0.00,VWS V14.01,2013-10-31 14:10:00,
2013-10-31 09:15:00,37.8,31.8,28.32,NNW,338,7.8,8.5,79,0.00,,,0.00,VWS V14.01,2013-10-31 14:15:00,
2013-10-31 09:20:00,37.8,31.8,28.32,WSW,248,5.6,10.5,79,0.00,,,0.00,VWS V14.01,2013-10-31 14:20:00,
2013-10-31 09:25:00,37.9,31.7,28.32,WNW,292,10.5,10.7,78,0.00,,,0.00,VWS V14.01,2013-10-31 14:25:00,
2013-10-31 09:30:00,37.9,31.4,28.32,WNW,292,6.3,12.8,77,0.00,,,0.00,VWS V14.01,2013-10-31 14:30:00,
2013-10-31 09:35:00,38.1,31.6,28.32,WNW,292,8.5,9.0,77,0.00,,,0.00,VWS V14.01,2013-10-31 14:35:00,
2013-10-31 09:40:00,38.1,31.6,28.32,WNW,292,8.7,12.8,77,0.00,,,0.00,VWS V14.01,2013-10-31 14:40:00,
2013-10-31 09:45:00,38.3,31.4,28.32,WNW,292,10.1,10.7,76,0.00,,,0.00,VWS V14.01,2013-10-31 14:45:00,
2013-10-31 09:50:00,38.3,31.4,28.32,WNW,292,10.5,11.0,76,0.00,,,0.00,VWS V14.01,2013-10-31 14:50:00,
2013-10-31 09:55:00,38.1,30.9,28.32,WNW,292,8.1,11.2,75,0.00,,,0.00,VWS V14.01,2013-10-31 14:55:00,
2013-10-31 10:00:00,38.3,31.7,28.32,WNW,292,9.2,11.0,77,0.00,,,0.00,VWS V14.01,2013-10-31 15:00:00,
2013-10-31 10:05:00,37.6,31.7,28.32,WNW,292,10.1,11.2,79,0.00,,,0.00,VWS V14.01,2013-10-31 15:05:00,
2013-10-31 10:10:00,38.3,31.7,28.32,WNW,292,8.5,12.8,77,0.00,,,0.00,VWS V14.01,2013-10-31 15:10:00,
2013-10-31 10:15:00,38.5,32.2,28.32,WSW,248,10.5,10.7,78,0.00,,,0.00,VWS V14.01,2013-10-31 15:15:00,
2013-10-31 10:20:00,38.5,32.2,28.32,WNW,292,10.7,12.3,78,0.00,,,0.00,VWS V14.01,2013-10-31 15:20:00,
2013-10-31 10:25:00,38.7,32.4,28.32,WNW,292,7.8,11.0,78,0.00,,,0.00,VWS V14.01,2013-10-31 15:25:00,
2013-10-31 10:30:00,38.8,32.9,28.32,WNW,292,7.8,10.5,79,0.00,,,0.00,VWS V14.01,2013-10-31 15:30:00,
2013-10-31 10:35:00,39.2,32.6,28.32,WSW,248,8.1,12.8,77,0.00,,,0.00,VWS V14.01,2013-10-31 15:35:00,
2013-10-31 10:40:00,39.4,33.1,28.32,WNW,292,8.7,10.7,78,0.00,,,0.00,VWS V14.01,2013-10-31 15:40:00,
2013-10-31 10:45:00,39.7,32.8,28.32,NNW,338,6.3,10.5,76,0.00,,,0.00,VWS V14.01,2013-10-31 15:45:00,
2013-10-31 10:50:00,39.7,31.8,28.29,WNW,292,7.6,10.7,73,0.00,,,0.00,VWS V14.01,2013-10-31 15:50:00,
2013-10-31 10:55:00,40.1,32.2,28.29,WNW,292,7.8,10.7,73,0.00,,,0.00,VWS V14.01,2013-10-31 15:55:00,
2013-10-31 11:00:00,40.3,32.7,28.29,WNW,292,10.5,10.7,74,0.00,,,0.00,VWS V14.01,2013-10-31 16:00:00,
2013-10-31 11:05:00,38.3,31.7,28.32,West,270,10.5,13.0,77,0.00,,,0.00,VWS V14.01,2013-10-31 16:05:00,
2013-10-31 11:10:00,40.6,33.0,28.29,NW,315,6.3,12.5,74,0.00,,,0.00,VWS V14.01,2013-10-31 16:10:00,
2013-10-31 11:15:00,40.5,32.2,28.29,NW,315,6.3,12.1,72,0.00,,,0.00,VWS V14.01,2013-10-31 16:15:00,
2013-10-31 11:20:00,40.6,32.0,28.29,WNW,292,7.6,10.5,71,0.00,,,0.00,VWS V14.01,2013-10-31 16:20:00,
2013-10-31 11:25:00,38.7,32.4,28.32,WNW,292,7.8,11.0,78,0.00,,,0.00,VWS V14.01,2013-10-31 16:25:00,
2013-10-31 11:30:00,41.2,32.2,28.29,West,270,7.2,13.2,70,0.00,,,0.00,VWS V14.01,2013-10-31 16:30:00,
2013-10-31 11:35:00,41.5,31.8,28.29,NW,315,10.1,11.0,68,0.00,,,0.00,VWS V14.01,2013-10-31 16:35:00,
2013-10-31 11:40:00,41.7,30.8,28.29,WNW,292,13.0,15.2,65,0.00,,,0.00,VWS V14.01,2013-10-31 16:40:00,
2013-10-31 11:45:00,41.9,30.6,28.29,WNW,292,8.5,13.2,64,0.00,,,0.00,VWS V14.01,2013-10-31 16:45:00,
2013-10-31 11:50:00,42.3,32.5,28.29,WNW,292,10.1,10.5,68,0.00,,,0.00,VWS V14.01,2013-10-31 16:50:00,
2013-10-31 11:55:00,42.3,31.0,28.29,WNW,292,5.6,11.4,64,0.00,,,0.00,VWS V14.01,2013-10-31 16:55:00,
2013-10-31 12:00:00,42.6,31.7,28.29,WNW,292,3.6,8.7,65,0.00,,,0.00,VWS V14.01,2013-10-31 17:00:00,
2013-10-31 12:05:00,40.3,32.0,28.29,WNW,292,10.7,15.2,72,0.00,,,0.00,VWS V14.01,2013-10-31 17:05:00,
2013-10-31 12:10:00,42.8,31.1,28.29,WNW,292,5.6,10.7,63,0.00,,,0.00,VWS V14.01,2013-10-31 17:10:00,
2013-10-31 12:15:00,42.8,31.1,28.29,WNW,292,10.3,10.3,63,0.00,,,0.00,VWS V14.01,2013-10-31 17:15:00,
2013-10-31 12:20:00,43.2,31.0,28.26,WNW,292,7.4,10.3,62,0.00,,,0.00,VWS V14.01,2013-10-31 17:20:00,
2013-10-31 12:25:00,43.3,31.6,28.26,WNW,292,7.2,8.7,63,0.00,,,0.00,VWS V14.01,2013-10-31 17:25:00,
2013-10-31 12:30:00,43.7,32.0,28.26,NW,315,6.3,7.2,63,0.00,,,0.00,VWS V14.01,2013-10-31 17:30:00,
2013-10-31 12:35:00,43.9,31.7,28.26,West,270,6.5,8.5,62,0.00,,,0.00,VWS V14.01,2013-10-31 17:35:00,
2013-10-31 12:40:00,44.2,31.2,28.26,WNW,292,5.8,10.5,60,0.00,,,0.00,VWS V14.01,2013-10-31 17:40:00,
2013-10-31 12:45:00,44.6,30.8,28.26,WNW,292,5.6,10.7,58,0.00,,,0.00,VWS V14.01,2013-10-31 17:45:00,
2013-10-31 12:50:00,44.8,30.1,28.26,WNW,292,4.9,10.1,56,0.00,,,0.00,VWS V14.01,2013-10-31 17:50:00,
2013-10-31 12:55:00,45.1,30.4,28.26,WNW,292,6.3,8.5,56,0.00,,,0.00,VWS V14.01,2013-10-31 17:55:00,
2013-10-31 13:00:00,45.3,30.1,28.26,WNW,292,8.5,9.8,55,0.00,,,0.00,VWS V14.01,2013-10-31 18:00:00,
2013-10-31 13:05:00,45.3,30.1,28.26,WNW,292,5.6,9.8,55,0.00,,,0.00,VWS V14.01,2013-10-31 18:05:00,
2013-10-31 13:10:00,45.5,30.3,28.26,West,270,4.3,8.5,55,0.00,,,0.00,VWS V14.01,2013-10-31 18:10:00,
2013-10-31 13:15:00,45.5,30.3,28.26,WNW,292,3.4,7.8,55,0.00,,,0.00,VWS V14.01,2013-10-31 18:15:00,
2013-10-31 13:20:00,45.5,31.2,28.23,West,270,7.8,10.1,57,0.00,,,0.00,VWS V14.01,2013-10-31 18:20:00,
2013-10-31 13:25:00,45.5,30.3,28.23,WNW,292,7.6,10.1,55,0.00,,,0.00,VWS V14.01,2013-10-31 18:25:00,
2013-10-31 13:30:00,45.5,30.3,28.23,WSW,248,5.8,8.7,55,0.00,,,0.00,VWS V14.01,2013-10-31 18:30:00,
2013-10-31 13:35:00,45.7,30.5,28.23,WNW,292,7.6,8.5,55,0.00,,,0.00,VWS V14.01,2013-10-31 18:35:00,
2013-10-31 13:40:00,46.4,32.0,28.23,WNW,292,7.8,8.5,57,0.00,,,0.00,VWS V14.01,2013-10-31 18:40:00,
2013-10-31 13:45:00,46.9,32.1,28.23,SW,225,6.5,11.0,56,0.00,,,0.00,VWS V14.01,2013-10-31 18:45:00,
2013-10-31 13:50:00,47.3,32.0,28.23,WNW,292,5.6,10.7,55,0.00,,,0.00,VWS V14.01,2013-10-31 18:50:00,
2013-10-31 13:55:00,47.3,31.0,28.23,West,270,7.8,11.0,53,0.00,,,0.00,VWS V14.01,2013-10-31 18:55:00,
2013-10-31 14:00:00,47.1,30.9,28.23,SW,225,6.0,9.8,53,0.00,,,0.00,VWS V14.01,2013-10-31 19:00:00,
2013-10-31 14:05:00,46.8,30.5,28.20,West,270,6.9,10.1,53,0.00,,,0.00,VWS V14.01,2013-10-31 19:05:00,
2013-10-31 14:10:00,47.1,30.9,28.20,WSW,248,7.8,13.0,53,0.00,,,0.00,VWS V14.01,2013-10-31 19:10:00,
2013-10-31 14:15:00,47.5,31.7,28.20,West,270,7.8,12.1,54,0.00,,,0.00,VWS V14.01,2013-10-31 19:15:00,
2013-10-31 14:20:00,48.0,31.2,28.20,WNW,292,6.9,11.0,52,0.00,,,0.00,VWS V14.01,2013-10-31 19:20:00,
2013-10-31 14:25:00,48.6,31.3,28.20,West,270,12.8,12.8,51,0.00,,,0.00,VWS V14.01,2013-10-31 19:25:00,
2013-10-31 14:30:00,49.1,32.7,28.20,WNW,292,9.6,12.8,53,0.00,,,0.00,VWS V14.01,2013-10-31 19:30:00,
2013-10-31 14:35:00,48.9,30.1,28.20,WNW,292,12.8,12.8,48,0.00,,,0.00,VWS V14.01,2013-10-31 19:35:00,
2013-10-31 14:40:00,49.3,31.0,28.20,WNW,292,11.4,12.8,49,0.00,,,0.00,VWS V14.01,2013-10-31 19:40:00,
2013-10-31 14:45:00,50.2,30.8,28.20,West,270,10.1,13.2,47,0.00,,,0.00,VWS V14.01,2013-10-31 19:45:00,
2013-10-31 14:50:00,50.4,29.8,28.17,WNW,292,14.8,14.8,45,0.00,,,0.00,VWS V14.01,2013-10-31 19:50:00,
2013-10-31 14:55:00,50.2,29.1,28.17,WNW,292,7.6,15.4,44,0.00,,,0.00,VWS V14.01,2013-10-31 19:55:00,
2013-10-31 15:00:00,50.9,31.4,28.17,WNW,292,8.5,14.5,47,0.00,,,0.00,VWS V14.01,2013-10-31 20:00:00,
2013-10-31 15:05:00,50.7,30.2,28.17,WNW,292,9.8,12.8,45,0.00,,,0.00,VWS V14.01,2013-10-31 20:05:00,
2013-10-31 15:10:00,50.4,30.4,28.17,WNW,292,7.6,13.0,46,0.00,,,0.00,VWS V14.01,2013-10-31 20:10:00,
2013-10-31 15:15:00,50.0,30.0,28.17,WNW,292,7.6,12.3,46,0.00,,,0.00,VWS V14.01,2013-10-31 20:15:00,
2013-10-31 15:20:00,50.0,30.0,28.17,NW,315,8.5,8.5,46,0.00,,,0.00,VWS V14.01,2013-10-31 20:20:00,
2013-10-31 15:25:00,49.8,30.4,28.17,NNW,338,6.5,10.7,47,0.00,,,0.00,VWS V14.01,2013-10-31 20:25:00,
2013-10-31 15:30:00,50.0,30.0,28.17,WNW,292,10.7,12.1,46,0.00,,,0.00,VWS V14.01,2013-10-31 20:30:00,
2013-10-31 15:35:00,50.4,30.9,28.17,WNW,292,8.5,13.2,47,0.00,,,0.00,VWS V14.01,2013-10-31 20:35:00,
2013-10-31 15:40:00,50.7,30.2,28.17,WNW,292,12.8,13.2,45,0.00,,,0.00,VWS V14.01,2013-10-31 20:40:00,
2013-10-31 15:45:00,50.7,29.1,28.17,West,270,7.8,15.2,43,0.00,,,0.00,VWS V14.01,2013-10-31 20:45:00,
2013-10-31 15:50:00,50.9,28.6,28.17,NW,315,15.4,19.7,42,0.00,,,0.00,VWS V14.01,2013-10-31 20:50:00,
2013-10-31 15:55:00,50.9,28.6,28.17,WNW,292,13.0,15.4,42,0.00,,,0.00,VWS V14.01,2013-10-31 20:55:00,
2013-10-31 16:00:00,50.9,28.6,28.17,WNW,292,14.8,14.8,42,0.00,,,0.00,VWS V14.01,2013-10-31 21:00:00,
2013-10-31 16:05:00,50.7,27.9,28.17,WNW,292,12.8,15.4,41,0.00,,,0.00,VWS V14.01,2013-10-31 21:05:00,
2013-10-31 16:10:00,50.7,29.1,28.17,WNW,292,10.5,14.8,43,0.00,,,0.00,VWS V14.01,2013-10-31 21:10:00,
2013-10-31 16:15:00,51.1,28.2,28.17,NW,315,13.4,15.7,41,0.00,,,0.00,VWS V14.01,2013-10-31 21:15:00,
2013-10-31 16:20:00,52.0,29.0,28.17,WNW,292,10.5,13.4,41,0.00,,,0.00,VWS V14.01,2013-10-31 21:20:00,
2013-10-31 16:25:00,51.6,29.3,28.17,West,270,11.0,13.2,42,0.00,,,0.00,VWS V14.01,2013-10-31 21:25:00,
2013-10-31 16:30:00,51.6,29.9,28.17,NW,315,12.1,15.4,43,0.00,,,0.00,VWS V14.01,2013-10-31 21:30:00,
2013-10-31 16:35:00,50.5,27.7,28.17,WNW,292,11.0,16.8,41,0.00,,,0.00,VWS V14.01,2013-10-31 21:35:00,
2013-10-31 16:40:00,50.7,29.1,28.17,WNW,292,10.3,12.5,43,0.00,,,0.00,VWS V14.01,2013-10-31 21:40:00,
2013-10-31 16:45:00,51.4,29.7,28.17,WNW,292,12.3,17.5,43,0.00,,,0.00,VWS V14.01,2013-10-31 21:45:00,
2013-10-31 16:50:00,51.6,29.9,28.17,West,270,8.7,14.8,43,0.00,,,0.00,VWS V14.01,2013-10-31 21:50:00,
2013-10-31 16:55:00,50.5,28.9,28.17,WNW,292,12.3,15.2,43,0.00,,,0.00,VWS V14.01,2013-10-31 21:55:00,
2013-10-31 17:00:00,50.5,30.0,28.17,NNW,338,10.1,19.9,45,0.00,,,0.00,VWS V14.01,2013-10-31 22:00:00,
2013-10-31 17:05:00,48.9,29.6,28.17,WNW,292,7.6,16.6,47,0.00,,,0.00,VWS V14.01,2013-10-31 22:05:00,
2013-10-31 17:10:00,48.2,28.9,28.17,WNW,292,14.8,17.7,47,0.00,,,0.00,VWS V14.01,2013-10-31 22:10:00,
2013-10-31 17:15:00,47.3,28.6,28.17,WNW,292,10.3,17.9,48,0.00,,,0.00,VWS V14.01,2013-10-31 22:15:00,
2013-10-31 17:20:00,46.8,28.1,28.17,WNW,292,9.8,13.4,48,0.00,,,0.00,VWS V14.01,2013-10-31 22:20:00,
2013-10-31 17:25:00,47.3,29.1,28.17,WNW,292,10.7,15.2,49,0.00,,,0.00,VWS V14.01,2013-10-31 22:25:00,
2013-10-31 17:30:00,46.8,28.6,28.17,WNW,292,16.1,17.5,49,0.00,,,0.00,VWS V14.01,2013-10-31 22:30:00,
2013-10-31 17:35:00,46.4,28.3,28.17,WNW,292,16.3,20.1,49,0.00,,,0.00,VWS V14.01,2013-10-31 22:35:00,
2013-10-31 17:40:00,46.2,27.6,28.17,WNW,292,20.4,20.8,48,0.00,,,0.00,VWS V14.01,2013-10-31 22:40:00,
2013-10-31 17:45:00,45.9,27.8,28.17,WNW,292,13.2,20.4,49,0.00,,,0.00,VWS V14.01,2013-10-31 22:45:00,
2013-10-31 17:50:00,44.8,27.3,28.20,WNW,292,17.7,20.6,50,0.00,,,0.00,VWS V14.01,2013-10-31 22:50:00,
2013-10-31 17:55:00,44.6,27.6,28.20,WNW,292,11.4,17.7,51,0.00,,,0.00,VWS V14.01,2013-10-31 22:55:00,
2013-10-31 18:00:00,44.2,27.3,28.20,WNW,292,17.2,17.5,51,0.00,,,0.00,VWS V14.01,2013-10-31 23:00:00,
2013-10-31 18:05:00,43.7,27.2,28.20,NW,315,10.5,17.5,52,0.00,,,0.00,VWS V14.01,2013-10-31 23:05:00,
2013-10-31 18:10:00,43.3,27.4,28.20,WNW,292,11.0,15.2,53,0.00,,,0.00,VWS V14.01,2013-10-31 23:10:00,
2013-10-31 18:15:00,42.8,27.8,28.20,WNW,292,7.4,13.0,55,0.00,,,0.00,VWS V14.01,2013-10-31 23:15:00,
2013-10-31 18:20:00,42.3,28.1,28.20,WNW,292,6.5,12.3,57,0.00,,,0.00,VWS V14.01,2013-10-31 23:20:00,
2013-10-31 18:25:00,42.1,28.8,28.20,WNW,292,8.5,12.1,59,0.00,,,0.00,VWS V14.01,2013-10-31 23:25:00,
2013-10-31 18:30:00,41.9,28.6,28.20,WNW,292,9.0,10.1,59,0.00,,,0.00,VWS V14.01,2013-10-31 23:30:00,
2013-10-31 18:35:00,41.7,29.3,28.20,WNW,292,6.3,9.6,61,0.00,,,0.00,VWS V14.01,2013-10-31 23:35:00,
2013-10-31 18:40:00,41.5,29.5,28.20,WNW,292,4.9,7.6,62,0.00,,,0.00,VWS V14.01,2013-10-31 23:40:00,
2013-10-31 18:45:00,41.4,29.7,28.20,WNW,292,6.3,7.6,63,0.00,,,0.00,VWS V14.01,2013-10-31 23:45:00,
2013-10-31 18:50:00,41.2,29.9,28.20,WNW,292,2.9,7.8,64,0.00,,,0.00,VWS V14.01,2013-10-31 23:50:00,
2013-10-31 18:55:00,41.2,30.3,28.20,WNW,292,5.8,8.1,65,0.00,,,0.00,VWS V14.01,2013-10-31 23:55:00,
2013-10-31 19:00:00,41.2,30.7,28.20,WNW,292,5.6,7.6,66,0.00,,,0.00,VWS V14.01,2013-11-01 00:00:00,
2013-10-31 19:05:00,41.2,30.7,28.20,WNW,292,4.9,7.4,66,0.00,,,0.00,VWS V14.01,2013-11-01 00:05:00,
2013-10-31 19:10:00,41.2,30.7,28.20,NNW,338,6.3,8.7,66,0.00,,,0.00,VWS V14.01,2013-11-01 00:10:00,
2013-10-31 19:15:00,41.2,31.1,28.20,WNW,292,6.5,8.5,67,0.00,,,0.00,VWS V14.01,2013-11-01 00:15:00,
2013-10-31 19:20:00,41.2,31.1,28.23,WNW,292,7.4,8.5,67,0.00,,,0.00,VWS V14.01,2013-11-01 00:20:00,
2013-10-31 19:25:00,41.2,31.1,28.23,WNW,292,5.8,7.4,67,0.00,,,0.00,VWS V14.01,2013-11-01 00:25:00,
2013-10-31 19:30:00,41.4,31.6,28.23,NW,315,6.3,7.8,68,0.00,,,0.00,VWS V14.01,2013-11-01 00:30:00,
2013-10-31 19:35:00,41.5,31.8,28.20,WNW,292,6.3,7.2,68,0.00,,,0.00,VWS V14.01,2013-11-01 00:35:00,
2013-10-31 19:40:00,41.5,29.5,28.20,WNW,292,4.9,7.6,62,0.00,,,0.00,VWS V14.01,2013-11-01 00:40:00,
2013-10-31 19:45:00,41.9,31.4,28.20,WNW,292,5.4,8.7,66,0.00,,,0.00,VWS V14.01,2013-11-01 00:45:00,
2013-10-31 19:50:00,42.1,31.2,28.20,WNW,292,6.5,7.8,65,0.00,,,0.00,VWS V14.01,2013-11-01 00:50:00,
2013-10-31 19:55:00,42.1,31.2,28.20,WNW,292,6.0,7.4,65,0.00,,,0.00,VWS V14.01,2013-11-01 00:55:00,
2013-10-31 20:00:00,42.1,31.2,28.20,NNW,338,5.6,8.7,65,0.00,,,0.00,VWS V14.01,2013-11-01 01:00:00,
2013-10-31 20:05:00,41.2,30.7,28.20,WNW,292,4.9,7.4,66,0.00,,,0.00,VWS V14.01,2013-11-01 01:05:00,
2013-10-31 20:10:00,42.3,30.6,28.20,WNW,292,7.2,8.7,63,0.00,,,0.00,VWS V14.01,2013-11-01 01:10:00,
2013-10-31 20:15:00,42.3,31.0,28.20,WNW,292,5.6,7.6,64,0.00,,,0.00,VWS V14.01,2013-11-01 01:15:00,
2013-10-31 20:20:00,42.3,31.0,28.20,West,270,4.9,7.8,64,0.00,,,0.00,VWS V14.01,2013-11-01 01:20:00,
2013-10-31 20:25:00,42.1,31.2,28.20,West,270,6.0,6.0,65,0.00,,,0.00,VWS V14.01,2013-11-01 01:25:00,
2013-10-31 20:30:00,42.1,31.6,28.20,WNW,292,4.9,6.0,66,0.00,,,0.00,VWS V14.01,2013-11-01 01:30:00,
2013-10-31 20:35:00,42.1,31.6,28.20,WNW,292,4.3,5.8,66,0.00,,,0.00,VWS V14.01,2013-11-01 01:35:00,
2013-10-31 20:40:00,42.3,31.7,28.20,WNW,292,4.9,5.8,66,0.00,,,0.00,VWS V14.01,2013-11-01 01:40:00,
2013-10-31 20:45:00,42.3,31.7,28.20,WNW,292,4.9,6.0,66,0.00,,,0.00,VWS V14.01,2013-11-01 01:45:00,
2013-10-31 20:50:00,42.3,31.7,28.20,WNW,292,5.4,7.2,66,0.00,,,0.00,VWS V14.01,2013-11-01 01:50:00,
2013-10-31 20:55:00,42.1,31.9,28.20,WNW,292,4.0,6.0,67,0.00,,,0.00,VWS V14.01,2013-11-01 01:55:00,
2013-10-31 21:00:00,42.1,31.9,28.20,WNW,292,4.9,5.6,67,0.00,,,0.00,VWS V14.01,2013-11-01 02:00:00,
2013-10-31 21:05:00,42.3,31.0,28.20,WNW,292,6.5,8.1,64,0.00,,,0.00,VWS V14.01,2013-11-01 02:05:00,
2013-10-31 21:10:00,42.1,32.3,28.20,West,270,3.6,6.3,68,0.00,,,0.00,VWS V14.01,2013-11-01 02:10:00,
2013-10-31 21:15:00,42.1,32.7,28.20,WNW,292,3.1,5.4,69,0.00,,,0.00,VWS V14.01,2013-11-01 02:15:00,
2013-10-31 21:20:00,41.9,32.5,28.20,WNW,292,4.3,5.6,69,0.00,,,0.00,VWS V14.01,2013-11-01 02:20:00,
2013-10-31 21:25:00,41.9,32.8,28.20,WNW,292,4.9,5.4,70,0.00,,,0.00,VWS V14.01,2013-11-01 02:25:00,
2013-10-31 21:30:00,41.9,32.8,28.20,WNW,292,3.1,5.4,70,0.00,,,0.00,VWS V14.01,2013-11-01 02:30:00,
2013-10-31 21:35:00,41.9,32.8,28.20,WNW,292,3.6,4.3,70,0.00,,,0.00,VWS V14.01,2013-11-01 02:35:00,
2013-10-31 21:40:00,41.9,32.8,28.20,WNW,292,4.3,4.9,70,0.00,,,0.00,VWS V14.01,2013-11-01 02:40:00,
2013-10-31 21:45:00,41.9,33.2,28.20,WSW,248,3.6,5.6,71,0.00,,,0.00,VWS V14.01,2013-11-01 02:45:00,
2013-10-31 21:50:00,41.9,33.2,28.20,WNW,292,4.7,4.7,71,0.00,,,0.00,VWS V14.01,2013-11-01 02:50:00,
2013-10-31 21:55:00,41.9,33.2,28.20,WNW,292,3.6,4.9,71,0.00,,,0.00,VWS V14.01,2013-11-01 02:55:00,
2013-10-31 22:00:00,41.7,33.4,28.20,West,270,2.7,5.4,72,0.00,,,0.00,VWS V14.01,2013-11-01 03:00:00,
2013-10-31 22:05:00,41.7,33.4,28.20,WSW,248,3.6,4.9,72,0.00,,,0.00,VWS V14.01,2013-11-01 03:05:00,
2013-10-31 22:10:00,41.7,33.7,28.20,West,270,3.4,4.3,73,0.00,,,0.00,VWS V14.01,2013-11-01 03:10:00,
2013-10-31 22:15:00,41.7,33.7,28.20,WNW,292,4.3,4.3,73,0.00,,,0.00,VWS V14.01,2013-11-01 03:15:00,
2013-10-31 22:20:00,41.9,33.9,28.20,West,270,2.7,4.9,73,0.00,,,0.00,VWS V14.01,2013-11-01 03:20:00,
2013-10-31 22:25:00,42.1,34.4,28.20,West,270,3.1,7.8,74,0.00,,,0.00,VWS V14.01,2013-11-01 03:25:00,
2013-10-31 22:30:00,42.1,34.1,28.20,WSW,248,3.4,6.3,73,0.00,,,0.00,VWS V14.01,2013-11-01 03:30:00,
2013-10-31 22:35:00,42.3,34.2,28.20,WSW,248,6.3,6.5,73,0.00,,,0.00,VWS V14.01,2013-11-01 03:35:00,
2013-10-31 22:40:00,42.4,34.4,28.20,West,270,6.3,7.2,73,0.00,,,0.00,VWS V14.01,2013-11-01 03:40:00,
2013-10-31 22:45:00,42.6,34.2,28.20,West,270,6.5,6.5,72,0.00,,,0.00,VWS V14.01,2013-11-01 03:45:00,
2013-10-31 22:50:00,42.6,34.2,28.20,WSW,248,4.9,7.8,72,0.00,,,0.00,VWS V14.01,2013-11-01 03:50:00,
2013-10-31 22:55:00,42.8,34.1,28.20,WNW,292,5.8,6.3,71,0.00,,,0.00,VWS V14.01,2013-11-01 03:55:00,
2013-10-31 23:00:00,42.8,34.1,28.20,WSW,248,7.4,7.4,71,0.00,,,0.00,VWS V14.01,2013-11-01 04:00:00,
2013-10-31 23:05:00,43.0,33.9,28.20,WSW,248,8.1,8.1,70,0.00,,,0.00,VWS V14.01,2013-11-01 04:05:00,
2013-10-31 23:10:00,43.3,33.5,28.20,West,270,7.6,9.6,68,0.00,,,0.00,VWS V14.01,2013-11-01 04:10:00,
2013-10-31 23:15:00,43.5,32.9,28.20,West,270,7.6,9.8,66,0.00,,,0.00,VWS V14.01,2013-11-01 04:15:00,
2013-10-31 23:20:00,43.7,32.7,28.20,WSW,248,10.3,10.7,65,0.00,,,0.00,VWS V14.01,2013-11-01 04:20:00,
2013-10-31 23:25:00,43.7,31.5,28.20,WSW,248,9.8,11.0,62,0.00,,,0.00,VWS V14.01,2013-11-01 04:25:00,
2013-10-31 23:30:00,44.1,31.5,28.20,WNW,292,6.3,13.0,61,0.00,,,0.00,VWS V14.01,2013-11-01 04:30:00,
2013-10-31 23:35:00,44.2,31.2,28.23,WSW,248,7.8,10.7,60,0.00,,,0.00,VWS V14.01,2013-11-01 04:35:00,
2013-10-31 23:40:00,44.2,30.8,28.23,West,270,9.8,11.0,59,0.00,,,0.00,VWS V14.01,2013-11-01 04:40:00,
2013-10-31 23:45:00,44.4,31.0,28.23,WNW,292,11.0,11.2,59,0.00,,,0.00,VWS V14.01,2013-11-01 04:45:00,
2013-10-31 23:50:00,44.4,31.0,28.20,West,270,7.6,11.4,59,0.00,,,0.00,VWS V14.01,2013-11-01 04:50:00,
2013-10-31 23:55:00,44.2,30.8,28.20,WNW,292,7.4,12.8,59,0.00,,,0.00,VWS V14.01,2013-11-01 04:55:00,